SEC Jamboree #2 - Red 2016

Ann Arbor, MI

SEC Jamboree #2 - Red 2016 vs SEC Jamboree #1 2016

Aggregate Data Points
Difference This Meet That Meet
Overall Athletes +7 386 379
Overall Average -1:46.73 22:36.78 24:23.51
1st-10th Place -1:37.92 16:33.31 18:11.22
1st-25th Place -1:37.82 17:02.15 18:39.97
1st-50th Place -1:37.79 17:32.31 19:10.11
1st-100th Place -1:28.93 18:22.78 19:51.70
Common Athletes -- -- 243
Ran Faster 189 216 27
Ran Season Best 14 16 2
Average Time -56.37 23:08.99 24:05.36
Median Time -39.28 22:34.59 23:13.87
Middle 80% Times -57.48 22:55.85 23:53.34
Top 10% Times -26.19 18:21.16 18:47.35
Top 25% Times -28.64 19:11.74 19:40.37
Top 50% Times -35.78 20:16.81 20:52.59
Bottom 50% Times -1:16.50 25:49.79 27:06.28
Bottom 25% Times -1:31.22 28:09.94 29:41.16
Bottom 10% Times -1:22.41 30:04.03 31:26.44
Average Difference -56.37 -- --
Median Difference -1:03.13 -- --
Middle 80% Difference -58.79 -- --
Top 10% Difference -20.83 -- --
Top 50% Difference -33.68 -- --
Top 25% Difference -26.55 -- --
Top 50% Difference -33.68 -- --
Bottom 50% Difference -1:19.11 -- --
Bottom 25% Difference -1:37.42 -- --
Bottom 10% Difference -1:17.20 -- --

Performances of Common Athletes
Athlete Team Difference This Meet That Meet
Derek Liemohn Saline -14.83 17:18.07 17:32.90
Aaron Milley Saline -33.32 17:28.84 18:02.16
Simon Pfeiffer Saline -9.75 17:32.90 17:42.65
Thomas Young Ann Arbor Skyline -15.80 17:35.26 17:51.06
Brendan Pastor Ann Arbor Pioneer -58.06 17:41.38 18:39.44
David Evans Ann Arbor Skyline -10.50 17:49.64 18:00.14
Daniel Evans Ann Arbor Skyline -1:58.25 18:05.02 20:03.27
Toby Mepham Saline -8.34 18:06.68 18:15.02
Keegan Oldani Ann Arbor Skyline -36.61 18:09.40 18:46.01
Colin Chevalier Temperance-Bedford -58.50 18:12.45 19:10.95
Bryce Brophy Saline -43.76 18:14.75 18:58.51
Ben Shotwell Ann Arbor Skyline -35.44 18:15.15 18:50.59
Trevor Bishop Saline -49.55 18:16.38 19:05.93
Grant Peters Saline -2.29 18:27.66 18:29.95
Samuel Chen Saline -0.52 18:36.15 18:36.67
Grant Santos Saline -31.31 18:37.49 19:08.80
Nicholas Faulkner Saline -16.65 18:46.21 19:02.86
William Minnette Saline -50.02 18:48.60 19:38.62
Brady Huber Temperance-Bedford +4.28 18:53.33 18:49.05
Jacob Brunty Saline -1:06.82 18:53.04 19:59.86
Andrew Chen Saline -5.69 18:56.03 19:01.72
David Jordan Temperance-Bedford -19.55 18:57.46 19:17.01
Brock Boze Saline +6.47 19:05.49 18:59.02
Aj Cloutier Ann Arbor Skyline -1:02.49 18:59.49 20:01.98
Justin Forester Ann Arbor Skyline +1.54 19:02.19 19:00.65
Spencer Leslie Saline -45.32 19:05.77 19:51.09
Leo Toruno Ann Arbor Skyline -53.59 19:11.77 20:05.36
Winford Walker Saline -16.85 19:12.01 19:28.86
Luke Humphrey Saline -18.14 19:17.55 19:35.69
Avinash Kumar Saline -38.70 19:19.05 19:57.75
Alex Hughes Ann Arbor Pioneer -1:31.95 19:20.21 20:52.16
Dabao Zhang Ann Arbor Pioneer -1:19.73 19:23.47 20:43.20
Adrian Routt Saline -2:28.55 19:25.94 21:54.49
Ben Walkusky Saline -53.28 19:30.67 20:23.95
Michael Overdier Ann Arbor Pioneer -18.80 19:30.90 19:49.70
Michael Elms Saline -42.41 19:35.99 20:18.40
Dylan Reynolds Ann Arbor Skyline -26.73 19:37.60 20:04.33
Paul Crowley Saline +2.40 19:42.01 19:39.61
Zayd Mian Ann Arbor Huron -15.44 19:40.88 19:56.32
Cole Trese Saline +23.73 20:10.51 19:46.78
Brian York Ann Arbor Skyline -19.58 19:46.97 20:06.55
Luke Wertenberger Ann Arbor Skyline -5.03 19:47.22 19:52.25
Justin Bennett Temperance-Bedford -33.90 19:48.80 20:22.70
Nick Huss Temperance-Bedford +13.70 20:04.12 19:50.42
Josiah Rentschler Saline -1:11.88 19:50.98 21:02.86
Matthew Lagerquist Saline -59.49 19:51.24 20:50.73
Tim Kohn Ann Arbor Huron -1:23.16 19:52.21 21:15.37
Angad Sidhu Ann Arbor Pioneer -1:20.54 19:52.77 21:13.31
Jacob Stuck Saline -39.60 19:53.13 20:32.73
Niels Linde Saline -34.15 19:53.39 20:27.54
Aidan Bunting Saline -43.12 19:54.16 20:37.28
Johnathan Speers Saline -24.03 19:56.28 20:20.31
Johnson He Ann Arbor Huron -2.79 19:58.00 20:00.79
Thomas Chen Ann Arbor Huron -29.96 20:03.74 20:33.70
Ethan Chevalier Temperance-Bedford +4.96 20:09.69 20:04.73
Tyler Kudlak Saline -24.58 20:07.73 20:32.31
Matthew Thibeault Saline -2.58 20:09.87 20:12.45
Ethan Smith Saline +7.93 20:18.05 20:10.12
Matthew Penoyar Ann Arbor Huron -39.59 20:13.87 20:53.46
Daniel York Ann Arbor Skyline -12.01 20:14.15 20:26.16
Erik Verduin Saline -46.30 20:16.56 21:02.86
Evan Thomas Saline -31.14 20:17.76 20:48.90
Gavin White Ann Arbor Skyline -11.74 20:19.54 20:31.28
Isaac Darragh Ann Arbor Skyline -8.47 20:20.94 20:29.41
Josh Benton Ann Arbor Pioneer -37.59 20:21.17 20:58.76
Yunfei Ma Ann Arbor Skyline -44.28 20:22.25 21:06.53
Joshua Hollinger Temperance-Bedford +58.53 21:26.78 20:28.25
Jack Geisler Temperance-Bedford -14.81 20:30.47 20:45.28
Stephen Bowman Saline +1.03 20:34.18 20:33.15
John Kraine Temperance-Bedford -1:20.40 20:34.52 21:54.92
Parker Allen Saline -1:17.55 20:36.11 21:53.66
Shay Milley Saline -1:35.18 20:36.37 22:11.55
Sean Tichener Ann Arbor Huron -33.07 20:38.41 21:11.48
Yaseen Daoud Ann Arbor Huron -42.07 20:39.38 21:21.45
Caden Bodine Temperance-Bedford -48.42 20:39.81 21:28.23
Nathan Smole Saline -25.89 20:41.56 21:07.45
Samuel Slone Ann Arbor Skyline -45.80 20:41.79 21:27.59
Thomas Woodside Saline +50.29 21:32.98 20:42.69
Jacob Ringle Saline -43.95 20:45.44 21:29.39
Sebastian Hollister Saline -57.60 20:45.69 21:43.29
Jalen Steudle Ann Arbor Skyline -50.32 20:46.36 21:36.68
Lucas Jordan Temperance-Bedford +1:25.09 22:13.04 20:47.95
Nicholas Manor Monroe -1:43.23 20:48.19 22:31.42
Dominic Bertoia Saline -45.34 20:48.79 21:34.13
Patrick Dotson Temperance-Bedford -1:13.67 20:50.13 22:03.80
Jaron Stacey Saline -40.58 20:50.81 21:31.39
Avery Chan Ann Arbor Huron -41.45 20:52.42 21:33.87
Luke Atzinger Saline -4.91 20:57.68 21:02.59
Luke Hensley Ann Arbor Pioneer -1:07.04 21:02.38 22:09.42
Brendan Behmer Ann Arbor Huron -1:04.95 21:05.95 22:10.90
Leah Hyne Saline -36.76 21:09.65 21:46.41
Elizabeth Riles Ann Arbor Pioneer -4:02.44 21:10.08 25:12.52
Kat Weeden Saline -1:57.30 21:13.10 23:10.40
Caleb Ilayan Saline -1:16.52 21:16.18 22:32.70
James Lancaster Saline -1:17.19 21:19.84 22:37.03
Eric Reuter Saline -50.99 21:22.32 22:13.31
Carter Koch Saline -50.63 21:24.24 22:14.87
Bendo Sompa Ann Arbor Pioneer -1:12.49 21:35.12 22:47.61
Jacky Jaing Ann Arbor Huron -1:16.42 21:35.22 22:51.64
Ben Phelps Saline -5.93 21:41.12 21:47.05
Luke Warhurst Ann Arbor Skyline -1:42.55 21:44.93 23:27.48
Nicole Dillman Saline -0.02 21:47.49 21:47.51
Nathan Zonnevylle Ann Arbor Skyline -1:06.77 21:49.79 22:56.56
Sophia Cunningham Ann Arbor Pioneer -1:14.91 21:52.90 23:07.81
Cynthia Grammatico Saline -55.65 21:56.53 22:52.18
Shawn Meah Ann Arbor Skyline +3.61 22:02.99 21:59.38
Daniel Knapp Temperance-Bedford -45.76 22:00.35 22:46.11
Ben Kessler Temperance-Bedford -50.21 22:00.60 22:50.81
Collin Vanloo Ann Arbor Skyline -2:27.52 22:01.49 24:29.01
Jenny Cantrell Saline -44.93 22:01.64 22:46.57
Yasmine Lajimi Saline +32.14 22:34.59 22:02.45
Abigail Wilson Saline -58.25 22:03.26 23:01.51
Ethan Cohen Ann Arbor Huron -29.88 22:05.38 22:35.26
Mark Einhaus Ann Arbor Pioneer -1:12.53 22:05.68 23:18.21
Fisher Rowe Temperance-Bedford -9.24 22:07.68 22:16.92
Jordan Starkey Saline -1:03.13 22:10.74 23:13.87
Katie Ryles Ann Arbor Pioneer -59.59 22:12.00 23:11.59
Alex Joseph Ann Arbor Huron +15.89 22:31.86 22:15.97
Joshua Sirota Saline +19.36 22:36.95 22:17.59
Taylor Vaughan Saline -1.62 22:18.66 22:20.28
Kozbial Logan Monroe -2:22.90 22:18.74 24:41.64
Adam Dickenson Saline +27.34 22:50.38 22:23.04
Collin Bell Temperance-Bedford -18.39 22:25.44 22:43.83
James Xiu Ann Arbor Huron -31.11 22:34.58 23:05.69
Kade Koerner Saline -22.60 22:37.93 23:00.53
Nico Kostiw Saline -58.47 22:39.87 23:38.34
Katie Miller Saline -21.56 22:41.47 23:03.03
Ian Cooper Saline -59.79 22:41.77 23:41.56
Jacob Salanta Saline -1:11.55 22:43.00 23:54.55
Chloe Lange Saline -33.26 22:43.30 23:16.56
Sarah Franke Saline -1:00.88 22:43.58 23:44.46
Caleb Meehan Saline -1:08.70 22:48.22 23:56.92
Justin Mcneil Ann Arbor Pioneer -10.53 22:49.72 23:00.25
Margy Hunter Saline -43.86 22:53.56 23:37.42
Sungyu Kwon Ann Arbor Pioneer -1:04.26 22:53.77 23:58.03
Jessa Davis Saline -1:15.93 22:56.14 24:12.07
Jordyn Frohner Saline -2:40.70 22:56.42 25:37.12
Cayla Champion Temperance-Bedford -13.99 23:05.37 23:19.36
Zack Gabanyicz Saline -1:43.45 23:07.07 24:50.52
Amanda Fox Saline -51.96 23:08.23 24:00.19
Georgia Zender Ann Arbor Pioneer -2:52.94 23:09.12 26:02.06
Tyler Breese Saline -37.58 23:11.68 23:49.26
Alex Graham Saline -1:17.35 23:13.87 24:31.22
Rachel Pacernick Ann Arbor Pioneer -23.06 23:17.30 23:40.36
Hunter Michowski Saline -1:29.49 23:19.95 24:49.44
Donovan Rees Ann Arbor Pioneer -1:11.79 23:20.61 24:32.40
Liam Goff Ann Arbor Huron +1:09.33 24:30.33 23:21.00
Gavin Wilkinson Temperance-Bedford -28.01 23:24.26 23:52.27
Brian Sullivan Temperance-Bedford -13.33 23:24.53 23:37.86
Noah Cook Saline -1:23.45 23:30.80 24:54.25
Naashon Francis Ann Arbor Pioneer -1:39.75 23:32.62 25:12.37
Logan Sole Saline -5:29.68 23:35.47 29:05.15
Zhuochen Yuan Ann Arbor Huron -39.64 23:40.42 24:20.06
Mackenzie Helpman Temperance-Bedford -28.90 23:47.28 24:16.18
Connor Nelson Saline -25.70 23:55.56 24:21.26
Laney Cubberly Temperance-Bedford -58.61 24:08.03 25:06.64
Jayla Johnson Ann Arbor Pioneer +1:48.26 25:59.60 24:11.34
Jacob Richardson Saline -1:15.93 24:20.72 25:36.65
Reece Thomas Temperance-Bedford -55.77 24:21.11 25:16.88
Nicholas Franklin Saline -43.22 24:22.04 25:05.26
Brandon Alsbach Temperance-Bedford -1:39.94 24:22.91 26:02.85
Juliana Boyd Saline -26.63 24:25.50 24:52.13
Ryan Moore Saline -1:34.50 24:28.35 26:02.85
Madeline Stewart Saline -17.44 24:29.42 24:46.86
Madeline Demlow Saline -1:21.80 24:30.60 25:52.40
D J Burgoyne Ann Arbor Pioneer -35.56 24:34.03 25:09.59
Addie Bird Saline -2:39.92 24:41.24 27:21.16
Elise Renberg Saline -1:53.69 24:44.60 26:38.29
Helena Helme Ann Arbor Huron -48.24 24:46.90 25:35.14
Amelia Catanzaro Ann Arbor Pioneer -6.65 24:50.62 24:57.27
Dayna Dec Temperance-Bedford -34.23 24:57.86 25:32.09
Kelly Adamovicz Saline -2:15.30 24:58.38 27:13.68
Baylee Canning Temperance-Bedford -1:48.55 24:58.61 26:47.16
James Dodd Ann Arbor Pioneer +0.72 24:59.49 24:58.77
Clayton Skinner Ann Arbor Huron -4:46.03 24:58.85 29:44.88
Carmen Parkinson Saline -2:07.86 25:01.02 27:08.88
Mariah Torangeau Temperance-Bedford +19.38 25:24.94 25:05.56
Katie Militello Saline -28.53 25:06.11 25:34.64
Gavi Forman Ann Arbor Huron -2:08.05 25:07.35 27:15.40
Marina Cayen Saline -1:41.12 25:08.22 26:49.34
Hunter Vizzini Saline -52.31 25:10.54 26:02.85
Cate Dombrowski Ann Arbor Pioneer -1:48.94 25:11.71 27:00.65
Madison Caldwell Saline -1:28.68 25:15.19 26:43.87
Elena Beekman Saline -1:41.24 25:17.57 26:58.81
Hunter Helsel Temperance-Bedford +45.36 26:04.14 25:18.78
Willow Habart Saline -38.59 25:21.03 25:59.62
Olivia Sirota Saline -1:15.19 25:30.48 26:45.67
Audrey Shambaugh Ann Arbor Pioneer -1:36.11 25:32.06 27:08.17
Sydni Victoria Saline -1:43.91 25:36.65 27:20.56
Maxwell Bauer Saline -2:59.23 25:42.64 28:41.87
Celeste Pan Ann Arbor Huron -1:18.11 26:18.62 27:36.73
Lauren Boettger Saline -1:17.82 26:20.86 27:38.68
Brittney Tuck Saline -1:48.77 26:25.99 28:14.76
Yadira Vega Monroe -2:22.23 26:30.70 28:52.93
Grant Pickett Saline -2:19.87 26:35.20 28:55.07
Claudia Wood Saline -27.39 26:37.78 27:05.17
Eldon Wilderman Ann Arbor Huron -1:36.07 26:40.69 28:16.76
Erin Evans Saline -1:36.97 26:41.87 28:18.84
Yasemin Gunal Ann Arbor Huron -1:36.25 26:44.93 28:21.18
Anastasia Frederick Saline +18.23 27:05.79 26:47.56
Chrissy Polzin Saline -2:40.91 26:51.13 29:32.04
Elena Hoerauf Saline -2:27.24 26:51.63 29:18.87
Hannah Lee Ann Arbor Huron -1:01.90 26:52.36 27:54.26
Madison Zimmerman Temperance-Bedford -49.07 26:53.54 27:42.61
Hannah Zetterholm Saline -1:03.50 27:01.35 28:04.85
Hannah Benedek Saline -2:44.92 27:04.90 29:49.82
William Engelhuber Saline -1:18.32 27:22.70 28:41.02
Austin Dazley Temperance-Bedford -50.27 27:27.09 28:17.36
Anna Weaver Saline -2:12.42 27:38.99 29:51.41
Natalie Bauman Saline -1:34.21 27:45.34 29:19.55
Allison Dillmann Saline -2:32.07 27:48.97 30:21.04
Robert Smith Saline -1:01.57 27:49.02 28:50.59
Evan Barolo Ann Arbor Skyline -1:36.89 27:51.76 29:28.65
Molly Finegan Saline -2:16.51 27:54.19 30:10.70
Erin Lathrop Saline -4:18.53 27:54.58 32:13.11
Gillian Nelson Saline -2:38.04 27:58.35 30:36.39
Katelyn Tayler Monroe +4:20.83 32:19.48 27:58.65
Jordyn Banek Monroe +4:23.77 32:24.05 28:00.28
Rachel Siegel Saline -1:42.52 28:01.24 29:43.76
Lauren Hyne Saline -47.29 28:04.68 28:51.97
Madison Shroyer Monroe -1:02.04 28:17.09 29:19.13
Jane Burnett Saline -2:23.00 28:18.56 30:41.56
Abigail Bitzer Monroe -1:23.63 28:21.71 29:45.34
Clara Feist Saline -2:18.69 28:24.48 30:43.17
Jillian Sutter Temperance-Bedford -2:29.71 28:29.99 30:59.70
Sophia Tiglao Saline -2:12.11 28:37.76 30:49.87
Hana Kim Ann Arbor Huron -2:08.24 28:41.25 30:49.49
Megan Ender Saline -2:06.72 28:52.12 30:58.84
Rosie Li Ann Arbor Huron -1:04.48 29:09.85 30:14.33
Katie Jacobsen Saline -55.42 29:16.55 30:11.97
Amber Wedemeyer Saline -1:31.85 29:36.10 31:07.95
Rachel Mccombs Saline -2:08.33 29:37.38 31:45.71
Annie Nelson Saline -3:11.80 30:09.57 33:21.37
Nicholas Wohlfeil Monroe -50.46 30:15.77 31:06.23
Elizabeth Mayo Saline +1:24.10 31:42.67 30:18.57
Kaitlyn Higgins Saline +1:13.74 31:33.53 30:19.79
Gabby Livorsi Saline -1:47.98 30:29.72 32:17.70
Sylvia Eakett Saline -1:49.59 30:29.97 32:19.56
Katie Mccombs Saline -1:38.53 30:37.34 32:15.87
Morgan Jones Saline -1:13.14 30:37.61 31:50.75
Kiersten Garrett Saline -1:30.96 30:48.24 32:19.20
Tabitha Liggett Temperance-Bedford -1:08.56 32:02.14 33:10.70
Naomi Veidlinger Ann Arbor Pioneer -2:29.65 32:27.81 34:57.46